CAPE
318 429 315 394 365 332 323 206 199 328 494 505 476 427 424 472 507 624 646 573 546 538 468 435 455 540 606 695 761 693 620 536 436 517 564 566 534 566 794 950 772 708 466 737 711 456 292 137 56 24 30 36 0 44 94 94 64 240 470 775 1080 1320 1448 1322 1095 1022 920 1174 1137 1050 893 1290 1770 1968 1898 1830 1838 1902 1947 1935 1859 1775 1658 1624 1595
373 355 282 153 106 117 113 78 74 138 304 304 261 259 323 416 541 694 715 576 471 470 499 575 656 636 594 513 607 588 491 537 594 425 468 462 445 459 471 587 634 587 417 439 342 545 329 150 84 45 39 32 4 0 2 27 28 77 270 520 787 1078 1224 1183 1072 1022 842 908 1142 1096 1089 1430 1361 1523 1565 1456 1366 1362 1388 1354 1251 1229 1404 1498 1520
305 325 130 66 60 52 70 40 32 69 90 71 67 106 253 443 601 713 660 548 626 659 698 689 630 548 482 424 442 370 332 370 433 478 533 555 521 500 482 356 280 268 170 126 284 333 460 350 249 164 76 48 26 3 0 2 19 37 85 246 536 836 1121 1143 1072 801 468 730 1089 1202 1131 1186 1117 1051 1171 1218 1107 966 883 869 870 957 1288 1525 1690
236 203 99 15 0 0 1 5 6 4 11 25 52 108 263 437 667 788 685 595 654 694 758 716 629 551 440 465 361 371 448 378 397 366 421 444 354 308 316 259 146 119 164 183 286 365 468 433 373 292 202 113 56 27 16 14 28 19 24 56 253 456 736 823 705 458 550 740 861 715 887 1020 1014 792 795 829 871 907 944 1004 1132 1325 1529 1768 1981
202 138 79 6 0 0 0 13 23 11 10 36 87 172 350 512 745 882 766 704 752 806 790 645 556 439 414 469 486 359 202 215 246 404 415 379 442 386 405 432 346 228 158 180 221 268 270 308 350 389 383 298 167 68 18 19 17 14 13 37 130 253 352 446 530 602 539 663 625 390 465 697 826 776 765 893 822 803 842 922 1088 1410 1647 1799 1937
234 88 58 4 0 0 5 19 40 146 86 125 119 205 364 702 849 956 897 967 1042 871 732 672 571 459 472 579 401 341 382 176 201 379 378 306 326 293 244 278 304 268 197 150 110 154 211 236 266 228 242 304 254 264 234 127 160 185 182 135 122 173 273 266 161 352 398 435 429 482 464 444 576 706 770 807 523 446 505 624 712 772 816 1048 1377
92 62 74 32 206 174 336 384 351 299 235 179 134 240 352 603 971 1066 1119 1272 1227 1051 834 725 540 455 454 492 532 335 356 254 214 242 332 280 246 198 195 196 197 204 235 220 158 104 120 133 136 124 96 82 77 74 188 305 289 237 210 209 217 238 201 209 162 265 346 296 318 386 438 492 561 672 807 632 374 363 325 268 230 397 636 820 943
6 24 84 109 250 276 528 601 586 483 353 292 238 238 354 567 811 1015 1224 1294 1270 1106 814 670 430 285 290 384 508 476 354 318 273 212 243 337 365 367 344 267 230 223 241 243 199 137 119 149 184 224 234 122 45 67 163 340 372 367 320 317 324 328 192 70 132 268 214 258 316 475 641 757 768 550 470 316 0 0 164 166 185 150 334 555 717
21 22 72 94 184 384 732 878 778 555 382 248 187 207 269 336 505 807 1046 1136 1218 1115 828 703 384 224 190 269 316 392 461 425 486 486 374 280 256 283 255 204 157 116 151 213 204 150 118 130 147 196 367 291 240 230 260 346 476 430 289 290 312 235 118 114 126 160 141 220 298 494 724 686 274 315 10 3 0 190 220 165 145 196 321 373 574
2 16 82 122 240 592 972 981 798 467 260 225 112 159 252 298 452 706 958 1106 1110 975 847 738 434 276 208 192 225 297 392 323 229 217 175 214 218 239 172 76 113 105 139 163 193 154 110 137 178 226 253 263 239 251 282 220 230 208 240 273 279 225 72 99 86 91 158 260 426 587 599 290 220 216 11 22 0 265 183 319 441 507 538 559 572
2 15 55 82 346 786 1130 1042 681 420 327 469 355 170 242 328 400 522 672 754 766 754 823 744 569 279 201 148 168 230 290 281 223 186 66 35 118 191 186 122 157 164 229 229 159 131 128 106 112 162 102 81 126 208 304 300 257 247 254 246 121 62 50 55 54 120 388 467 481 492 287 146 184 128 2 24 256 216 180 154 215 334 546 630 658
24 22 34 94 496 894 1196 1194 888 636 543 630 630 424 267 316 288 270 330 419 542 694 696 646 570 249 184 163 183 233 252 94 24 2 5 1 54 224 314 255 188 91 206 385 258 184 150 136 41 42 66 110 116 179 234 243 205 177 120 88 53 50 52 63 140 370 513 507 438 366 219 199 195 148 58 246 287 232 190 161 147 153 295 570 714
35 65 66 112 458 742 1124 1172 967 797 730 798 766 664 456 325 269 208 191 335 568 486 459 504 505 222 157 222 176 132 124 0 4 30 53 45 62 196 373 262 157 28 102 305 413 290 154 58 36 12 10 32 52 118 93 142 129 122 112 152 152 124 120 142 175 220 220 228 246 282 256 248 202 210 240 276 209 165 148 154 177 186 208 272 489
13 83 507 454 343 351 611 663 584 589 755 952 926 745 563 378 240 151 264 358 238 192 303 446 444 234 186 247 189 131 188 5 0 6 28 34 74 165 356 218 277 79 14 119 324 307 70 46 12 20 22 35 50 74 64 55 104 73 81 85 70 18 88 120 152 175 223 198 212 280 308 236 192 168 176 228 235 244 261 351 422 395 314 496 660
0 62 518 258 50 30 14 26 85 408 784 1046 1034 837 614 499 380 253 157 160 181 224 410 488 422 292 221 273 292 151 176 8 6 10 9 32 90 146 300 406 224 28 0 3 125 250 68 38 28 4 10 46 44 37 1 1 2 3 0 0 0 88 174 212 190 141 201 206 265 335 178 84 111 122 44 183 314 671 863 886 771 522 422 969 1405
0 0 106 44 6 6 13 26 95 363 720 1025 1086 936 686 534 358 212 227 227 347 454 618 316 402 247 172 300 297 127 90 0 3 5 9 23 109 147 243 427 258 23 0 6 8 26 42 17 12 10 33 31 5 10 11 25 19 8 3 1 24 76 132 158 132 137 178 261 337 112 52 35 112 25 192 364 382 636 833 868 784 458 847 1004 872
4 12 226 10 0 0 0 42 170 340 622 922 1051 985 748 544 329 220 172 202 363 630 606 250 368 203 178 233 210 251 116 24 0 0 1 14 102 140 160 380 211 96 64 32 32 30 41 19 15 13 21 27 26 38 28 22 15 26 28 63 128 163 154 161 208 317 242 258 232 197 194 215 163 28 291 717 634 522 623 522 752 846 714 718 688
1 49 68 3 0 0 0 70 113 195 507 824 1015 1013 792 491 278 186 156 157 229 534 536 290 350 192 210 157 189 271 214 70 0 0 0 8 36 114 206 342 120 109 44 38 31 36 65 31 40 56 70 40 35 48 53 71 58 48 82 134 152 240 288 337 285 350 436 447 398 403 356 317 246 178 225 496 713 539 667 893 1224 1102 796 655 705
43 226 189 0 0 1 26 42 67 204 601 863 1086 1040 755 498 300 99 42 64 190 454 505 412 365 168 178 214 256 248 278 123 25 0 0 5 11 87 265 309 180 110 149 137 50 37 62 73 102 120 156 168 142 118 95 114 91 114 188 151 184 224 243 356 386 408 480 552 561 544 365 296 274 315 307 370 613 758 670 600 1262 1400 978 960 1124
387 119 8 1 44 145 31 106 150 640 765 1046 1192 1075 852 421 38 28 30 130 200 343 413 360 393 263 272 208 222 273 418 151 82 26 0 2 2 8 67 190 146 157 114 84 130 110 41 32 36 57 88 111 118 135 139 102 122 229 226 224 199 216 264 324 388 388 374 376 435 390 322 288 349 399 393 204 72 86 134 246 564 660 706 1167 1372
582 554 411 248 56 17 28 66 438 928 1064 1230 1342 1041 471 58 36 53 153 224 238 254 851 672 634 364 278 285 233 332 517 228 156 62 18 0 2 4 6 22 42 74 70 63 88 99 62 50 51 54 52 41 41 48 78 138 196 197 202 204 200 201 227 286 238 308 317 334 312 286 261 215 124 65 13 19 14 1 0 4 188 330 564 981 1282
794 550 356 92 441 139 131 161 664 1040 1388 1482 1220 718 210 68 154 238 259 339 249 16 202 734 841 520 310 344 228 109 388 304 246 106 62 26 5 0 51 52 14 16 34 36 33 40 41 21 27 42 52 45 34 38 60 82 106 134 150 154 141 126 147 138 116 172 188 197 173 89 27 0 0 4 5 6 30 153 164 168 94 163 504 921 1062
1025 595 553 554 500 390 54 160 351 747 1180 1120 818 477 360 354 191 319 328 373 259 9 12 18 44 128 473 276 324 167 188 224 166 148 98 72 50 37 42 86 39 0 6 21 12 17 26 29 29 33 44 42 39 49 68 87 101 102 99 96 102 95 83 58 62 107 95 74 43 34 1 0 4 48 55 55 68 4 74 145 347 610 688 968 977
901 759 685 629 308 0 98 263 3 0 25 402 577 450 385 361 175 285 268 391 151 17 0 0 0 1 218 401 240 273 342 247 142 127 100 102 90 107 65 88 122 62 10 6 18 24 21 26 33 34 28 29 30 37 50 68 80 80 94 94 98 91 73 9 34 81 32 43 14 0 0 0 0 0 3 46 78 113 100 202 340 628 1194 1329 1278
1112 771 686 302 4 25 58 21 8 0 0 29 275 315 244 194 77 26 91 206 86 35 0 0 0 0 182 346 151 232 499 280 160 121 120 110 173 125 120 81 110 93 68 40 2 1 1 2 7 19 24 25 25 24 35 49 60 82 82 85 82 74 46 6 15 13 1 1 0 0 0 0 0 0 0 0 62 164 281 355 311 358 356 591 587
1048 727 113 20 0 18 50 78 0 0 0 5 52 80 157 66 1 0 6 4 64 49 11 1 0 0 19 222 191 236 359 170 209 332 430 424 511 228 200 130 114 119 100 60 37 22 10 7 1 0 0 1 4 11 14 15 20 25 37 46 38 22 9 0 7 0 2 6 4 0 0 0 1 0 0 1 5 97 186 179 176 181 404 368 184
1056 446 12 0 0 99 480 176 142 0 0 0 0 0 0 0 0 0 0 0 3 14 5 12 0 0 14 47 254 304 286 280 420 457 444 495 759 497 389 253 175 144 153 125 95 58 21 18 14 6 0 4 3 0 0 1 6 15 13 8 8 0 0 0 0 0 0 0 7 5 0 2 1 1 0 0 1 0 48 182 179 142 131 188 374
548 62 0 2 161 50 56 1074 394 0 0 0 0 0 0 0 0 0 0 0 3 2 0 0 0 0 0 30 211 303 263 360 314 268 293 378 540 665 481 496 293 223 176 149 126 108 87 35 20 22 31 40 48 29 6 0 0 0 1 1 4 6 2 5 5 1 0 12 15 10 9 4 1 0 0 0 0 0 4 40 121 61 50 45 29
367 0 6 0 92 670 0 8 6 0 0 0 0 0 0 2 0 0 0 1 0 0 0 0 0 0 0 11 248 350 353 170 30 0 0 10 10 193 342 348 443 310 253 171 122 118 111 96 79 66 70 84 89 83 42 14 0 0 0 0 0 0 0 0 0 1 2 5 6 6 4 1 0 0 0 0 0 0 0 2 1 1 0 0 0
218 23 11 0 15 472 33 2 0 0 4 0 0 0 456 2 0 0 0 0 0 0 0 0 0 0 0 0 24 68 24 8 0 0 0 0 0 0 79 104 182 248 261 227 161 167 158 118 102 91 90 85 92 104 107 71 44 34 28 20 11 4 0 0 0 2 2 2 1 1 0 0 0 0 1 1 0 0 0 0 0 0 1 0 0
158 0 0 0 38 47 6 2 4 18 2 0 0 6 4 0 0 0 0 0 0 0 0 0 0 0 0 0 6 0 0 0 0 0 0 0 0 0 0 0 0 0 189 234 182 176 179 154 143 136 135 138 132 136 129 108 86 61 48 50 50 41 26 15 16 2 1 2 1 0 0 0 0 0 0 0 0 0 0 0 0 0 0 0 0
198 120 12 0 434 1556 34 72 170 28 0 0 1 21 0 0 0 0 0 0 0 0 0 0 0 0 0 0 0 0 0 0 0 0 0 0 0 0 0 0 0 0 0 0 69 164 183 191 188 188 190 182 174 142 127 114 101 92 79 62 57 59 56 50 46 49 48 16 0 0 0 0 0 0 0 0 0 0 0 0 0 0 0 0 0
198 238 38 246 848 1897 708 123 204 58 10 38 49 18 0 0 0 0 0 0 0 0 0 0 0 0 0 0 0 0 0 0 0 0 0 0 0 0 0 0 0 0 0 0 0 0 0 4 86 108 96 61 13 16 16 59 68 82 87 77 68 60 65 62 61 68 73 70 34 22 24 4 0 0 0 0 0 0 0 0 0 0 0 0 0
374 133 5 10 74 272 266 146 34 0 7 66 108 133 14 6 0 0 0 0 0 0 0 0 0 0 0 0 0 0 0 0 0 0 0 0 0 0 0 0 0 0 0 0 0 0 0 0 0 0 0 0 0 1 7 13 8 9 28 50 39 60 70 82 88 94 93 91 65 37 25 7 0 0 1 0 0 0 0 0 0 0 0 0 0
112 1070 1224 1209 849 240 9 2 4 19 157 136 28 26 6 35 108 46 0 0 0 0 0 0 0 0 0 0 0 0 0 0 0 0 0 0 0 0 0 0 0 0 0 0 0 0 0 0 0 0 0 0 0 0 0 1 5 4 0 0 0 21 48 69 80 94 103 91 70 44 15 0 0 0 0 0 0 0 0 0 0 0 0 0 0
210 231 324 868 818 260 156 66 32 92 162 106 96 86 84 48 40 19 0 0 0 0 0 0 0 0 0 0 0 0 0 0 0 0 0 0 0 0 0 0 0 0 0 0 0 0 0 0 0 0 0 0 0 2 20 14 6 12 30 30 15 74 65 16 52 75 68 52 44 37 7 2 9 0 0 0 0 0 0 0 0 0 0 0 0
566 532 406 117 11 37 118 678 478 301 167 13 0 4 28 29 68 8 0 0 0 0 0 0 0 0 0 0 0 0 0 0 0 0 0 0 0 0 0 0 0 0 0 0 0 0 0 0 0 0 0 0 0 0 0 2 4 4 19 4 1 54 95 78 74 59 44 22 0 0 0 38 43 38 28 10 0 0 0 0 0 0 0 0 0
689 177 1 23 7 33 59 18 50 107 36 9 5 16 25 13 9 0 2 2 0 0 0 0 0 0 0 0 0 0 0 0 0 0 0 0 0 0 0 0 0 0 0 0 0 0 0 0 0 17 15 0 0 16 22 0 0 35 75 50 34 32 20 58 110 119 120 76 84 90 75 74 68 59 0 0 0 0 0 0 0 0 0 0 0
572 446 85 21 200 334 359 288 181 79 58 23 26 64 69 16 5 2 0 0 0 0 1 1 1 1 0 0 0 0 0 0 0 0 0 0 0 0 0 0 0 0 0 0 0 0 0 0 0 6 12 0 0 0 0 0 0 37 20 0 0 5 9 7 21 53 104 87 90 91 84 76 60 13 48 46 50 50 47 35 24 17 15 13 0
10 64 290 280 236 107 185 210 69 58 64 14 1 1 2 1 0 0 0 1 1 3 4 3 2 1 1 0 0 0 2 2 4 3 2 1 0 0 0 2 3 2 1 0 0 0 0 0 0 14 12 0 0 0 0 4 13 20 23 2 2 0 2 16 74 86 64 41 10 0 1 2 8 69 68 73 66 64 64 55 41 34 29 26 18
318 532 502 267 151 114 94 41 24 4 0 1 0 0 1 2 1 1 3 4 3 2 3 3 3 2 0 0 0 0 4 4 6 4 2 2 1 0 0 2 4 2 2 2 2 3 3 0 0 0 2 8 2 0 0 0 0 0 0 7 8 24 31 36 27 2 0 0 0 0 0 0 0 0 1 0 66 78 93 93 77 70 58 50 40
547 465 374 320 236 153 97 4 2 2 1 3 2 2 2 2 2 6 6 3 4 2 1 1 1 2 0 0 0 0 1 5 5 4 3 2 2 2 1 1 1 1 2 4 5 5 1 0 0 0 0 0 0 0 0 0 0 0 0 0 12 21 26 8 0 0 0 0 0 0 0 0 0 0 0 0 37 67 82 85 96 89 70 62 54
172 177 150 105 25 2 6 4 2 15 2 2 2 3 3 1 1 1 1 2 2 4 2 2 2 2 1 0 0 0 2 3 6 4 4 4 3 4 2 0 0 0 3 3 2 0 0 0 0 0 0 0 0 0 0 0 0 0 0 0 1 0 7 8 7 0 0 0 0 0 0 0 0 0 0 32 40 52 78 117 135 118 101 90 74
132 100 63 5 0 0 0 0 2 4 2 5 4 3 2 2 1 1 1 2 2 3 3 4 4 2 1 1 0 1 2 2 2 2 2 3 2 2 3 3 1 1 3 2 0 0 0 0 0 0 0 0 0 0 0 0 0 0 0 0 0 1 0 0 0 0 0 0 0 0 0 0 0 0 44 52 62 72 86 98 98 102 102 87 72
64 71 67 62 50 48 7 0 0 0 0 0 0 1 4 2 2 2 2 2 4 3 3 6 6 3 2 2 3 4 4 5 6 4 4 3 2 2 3 4 6 2 6 4 4 1 0 1 0 0 0 0 0 3 6 2 8 15 9 4 0 0 0 3 3 1 0 0 0 0 0 0 0 0 8 56 60 74 86 90 101 116 116 114 104
19 23 22 32 28 16 0 0 0 0 0 0 0 0 0 0 0 2 3 3 4 2 2 2 3 4 6 6 6 7 4 4 4 6 6 6 6 5 6 4 4 4 6 15 10 8 6 2 3 2 1 1 1 1 0 3 6 5 3 1 0 0 6 13 10 5 2 0 0 0 0 0 0 0 9 36 86 90 80 78 76 80 84 91 96
0 0 0 0 0 0 0 0 0 0 0 0 0 0 0 0 0 0 2 4 3 4 2 2 2 4 4 6 5 6 3 2 5 3 3 2 7 12 6 6 4 3 4 14 16 12 9 9 8 4 3 2 2 4 4 5 3 2 3 1 8 1 1 13 16 14 12 16 13 0 0 5 42 8 40 60 91 53 68 76 72 75 80 76 76
0 0 0 0 0 0 0 0 0 0 0 0 0 0 0 0 0 0 0 0 0 0 0 0 0 1 2 5 8 5 1 0 0 3 3 2 4 5 5 12 15 9 5 14 13 12 12 11 8 7 10 5 4 2 2 2 1 1 1 4 2 3 3 7 16 16 6 3 2 4 0 13 30 36 26 1 6 14 35 2 0 0 0 0 0
0 0 0 0 0 0 0 0 0 0 0 0 0 0 0 0 0 0 0 0 0 0 0 0 0 0 1 8 12 6 0 0 0 0 0 0 0 0 0 0 4 12 7 13 14 10 11 10 15 17 14 12 9 6 4 2 2 2 2 1 1 0 1 4 12 18 5 8 2 0 7 0 9 20 20 1 0 1 0 0 0 0 0 0 0
0 0 0 0 0 0 0 0 0 0 0 0 0 0 0 0 0 0 0 0 0 0 0 0 0 0 1 7 21 12 0 0 0 0 0 0 0 0 0 0 0 2 6 12 14 8 11 11 10 10 10 14 12 8 5 1 1 2 1 2 2 3 6 10 8 8 15 14 11 8 8 8 4 8 16 16 8 1 1 0 0 0 0 0 0
0 0 0 0 0 0 0 0 0 0 0 0 0 0 0 0 0 1 2 0 0 0 0 0 0 2 0 0 26 2 0 0 0 0 0 0 0 0 0 0 0 0 0 3 17 14 11 13 11 10 12 16 15 14 11 12 4 1 0 0 1 1 6 11 14 15 11 14 19 23 25 20 16 16 20 21 18 2 2 1 1 0 0 0 0
Wind_Speed
40 40 40 40 39 39 37 36 35 35 35 34 32 32 32 31 32 32 32 31 31 31 32 31 31 30 29 28 28 27 29 29 31 33 35 34 33 33 31 29 27 27 26 26 28 32 33 34 nan nan nan nan nan nan nan nan nan 24 24 23 22 30 34 29 26 25 31 33 31 30 31 33 33 32 30 29 28 28 29 30 31 31 30 29 27
39 38 39 38 37 37 37 nan nan 33 32 31 31 30 30 30 32 33 32 30 30 29 29 29 30 29 28 27 26 26 25 25 26 29 31 31 30 33 33 31 27 25 25 30 27 32 34 34 nan nan nan nan nan nan nan nan nan nan 25 24 24 27 32 31 26 29 26 31 30 32 32 31 29 33 30 29 28 28 27 29 31 32 30 29 28
38 38 37 nan nan nan nan nan nan nan nan nan nan 29 29 30 31 31 30 28 28 29 28 28 29 28 28 27 24 23 22 22 23 26 27 28 28 28 30 31 28 25 26 27 31 32 34 35 31 28 nan nan nan nan nan nan nan nan nan 29 27 29 30 28 30 28 25 26 29 29 27 28 26 27 29 28 28 28 28 29 30 31 31 29 28
38 37 nan nan nan nan nan nan nan nan nan nan nan 29 29 29 28 28 26 26 26 27 29 28 28 26 25 24 23 20 20 20 21 25 26 25 23 24 26 30 32 28 26 30 33 35 33 34 32 29 27 24 nan nan nan nan nan nan nan nan 31 28 31 32 31 32 33 30 26 24 28 26 24 26 27 28 27 27 27 29 31 30 30 29 28
39 37 nan nan nan nan nan nan nan nan nan nan nan 28 27 26 25 23 22 22 23 25 26 25 24 24 22 21 21 20 21 23 21 21 25 25 25 25 27 29 30 28 26 29 34 36 34 31 31 34 34 29 26 nan nan nan nan nan nan nan 35 38 37 35 35 32 30 27 25 25 28 25 24 24 24 23 25 26 27 28 30 30 30 30 30
40 nan nan nan nan nan nan nan nan 28 nan 28 26 24 23 23 20 19 20 19 19 21 21 21 20 20 20 19 20 17 19 21 21 23 24 26 26 25 26 28 27 26 25 27 32 37 37 33 32 36 35 30 26 26 26 23 24 28 31 35 39 40 36 36 36 34 30 26 24 24 25 22 24 21 20 19 18 20 24 26 28 29 29 29 29
nan nan nan nan 31 28 28 27 28 27 28 26 24 21 20 20 18 17 18 19 18 18 17 19 20 20 19 20 20 19 18 19 19 19 23 25 24 23 25 26 25 25 24 26 30 35 36 33 32 32 nan nan nan nan 28 28 29 30 30 32 36 36 36 35 35 34 30 27 26 25 23 23 22 17 19 21 18 19 20 24 24 26 28 29 29
nan nan nan 31 30 28 28 29 28 27 27 25 22 19 19 19 17 16 16 15 17 19 16 17 20 19 18 19 20 20 18 14 14 16 20 22 23 22 23 24 24 22 21 24 29 33 33 31 30 32 30 27 nan nan 29 30 33 33 33 34 35 35 34 nan 36 34 31 29 27 25 24 23 23 19 22 23 nan nan 20 18 16 21 25 29 30
nan nan nan nan 29 29 29 29 28 26 24 24 21 19 18 16 14 13 13 12 14 18 16 15 16 14 15 17 20 20 19 16 17 20 22 21 21 21 21 21 21 20 19 22 26 30 32 32 32 33 31 27 25 27 28 29 34 35 35 35 34 34 36 39 35 32 30 30 29 28 26 24 22 22 nan nan nan 17 20 18 16 19 23 27 29
nan nan nan 31 29 29 29 29 27 24 23 23 21 19 17 13 12 12 12 11 13 15 14 13 12 10 11 14 17 20 20 21 21 19 18 21 20 19 18 nan 16 17 18 19 25 29 31 33 34 28 28 27 26 24 25 26 29 32 35 34 33 33 nan nan nan nan 31 29 28 29 26 22 21 23 nan nan nan 22 20 19 18 20 25 24 29
nan nan nan nan 29 28 29 29 27 23 23 23 22 19 16 13 11 12 12 12 12 13 12 11 10 9 9 11 13 17 18 21 22 16 nan nan 18 16 14 13 14 15 15 17 22 26 30 33 35 31 30 nan 31 29 30 29 29 30 33 32 31 nan nan nan nan 34 32 29 29 29 24 20 22 24 nan nan 22 19 16 17 17 22 24 24 25
nan nan nan nan 28 28 28 27 25 22 22 22 21 19 17 13 10 11 11 10 11 10 9 10 9 9 9 11 13 15 17 nan nan nan nan nan nan 16 16 16 17 nan 18 14 18 21 25 30 nan nan nan 36 37 36 34 32 32 33 35 nan nan nan nan nan 36 37 34 32 31 27 25 22 23 27 nan 25 20 17 14 16 18 20 20 19 24
nan nan nan 29 27 27 26 25 23 22 20 20 20 19 17 13 9 10 9 9 11 10 8 9 9 10 11 13 15 16 16 nan nan nan nan nan nan 19 18 17 18 nan 19 17 17 21 25 nan nan nan nan nan nan 38 nan 37 34 33 34 34 32 30 28 27 32 36 38 35 32 29 27 27 27 26 27 27 27 18 17 17 19 20 17 16 18
nan nan 29 27 26 25 24 24 23 21 20 19 18 18 18 14 11 12 11 9 10 9 7 8 9 10 11 12 14 14 15 nan nan nan nan nan nan 22 20 18 17 nan nan 21 19 21 nan nan nan nan nan nan nan nan nan nan 39 nan nan nan nan nan nan 31 32 34 35 34 32 29 29 32 29 28 29 32 29 22 22 20 23 21 19 16 21
nan nan 29 26 nan nan nan nan nan 21 20 20 17 16 17 14 9 10 10 9 10 9 7 8 9 9 9 11 13 14 14 nan nan nan nan nan nan 23 21 20 22 nan nan nan 24 23 nan nan nan nan nan nan nan nan nan nan nan nan nan nan nan nan 36 35 38 39 35 34 33 30 33 nan 30 33 nan 31 27 26 27 26 24 22 25 27 28
nan nan 27 nan nan nan nan nan nan 21 20 20 18 15 14 13 10 8 8 8 11 12 10 10 9 9 9 10 11 14 nan nan nan nan nan nan 25 19 18 18 23 nan nan nan nan nan nan nan nan nan nan nan nan nan nan nan nan nan nan nan nan nan 37 36 39 38 35 36 37 34 nan nan 32 nan 32 29 29 32 32 26 22 24 27 27 27
nan nan 24 nan nan nan nan nan 21 20 20 20 18 15 14 11 10 10 8 7 9 12 12 9 8 7 8 9 9 11 14 nan nan nan nan nan 23 18 19 19 21 nan nan nan nan nan nan nan nan nan nan nan nan nan nan nan nan nan nan nan 38 42 43 43 41 37 37 37 37 37 40 38 33 nan 33 30 32 32 29 22 16 23 28 29 27
nan nan nan nan nan nan nan nan 20 19 19 18 18 17 15 15 13 11 10 8 9 13 13 10 7 4 6 6 5 8 12 nan nan nan nan nan nan 22 21 18 16 18 nan nan nan nan nan nan nan nan nan nan nan nan nan nan nan nan nan 41 42 46 47 46 47 46 46 47 46 43 41 39 35 30 28 28 29 27 27 22 24 26 25 26 24
nan 28 26 nan nan nan nan nan nan 20 19 17 18 17 16 14 11 nan nan nan 9 11 11 9 7 4 2 3 1 5 9 14 nan nan nan nan nan nan 25 18 12 15 19 18 nan nan nan nan 35 32 30 31 36 37 nan 32 nan 38 40 40 42 44 46 47 48 46 46 48 46 42 39 37 34 31 27 24 24 25 23 25 31 30 28 27 30
29 30 nan nan nan 21 nan 21 20 20 19 17 15 16 16 14 nan nan nan 9 6 7 10 9 6 3 1 1 1 1 5 10 nan nan nan nan nan nan nan 25 21 20 21 nan 24 26 nan nan nan nan nan 45 47 49 49 48 45 46 45 45 47 48 46 49 49 47 47 45 41 38 35 35 34 32 29 26 nan nan 23 25 30 33 31 30 31
29 29 28 25 nan nan nan nan 20 18 19 18 16 14 14 nan nan nan 6 6 7 6 8 9 7 5 3 2 2 5 2 7 12 nan nan nan nan nan nan nan nan nan nan nan nan nan nan nan nan nan nan nan nan nan nan 53 53 51 52 54 52 47 47 50 51 48 46 42 36 34 34 34 33 nan nan nan nan nan nan nan 27 29 28 28 28
29 28 26 nan 22 22 22 20 20 19 18 18 16 12 11 nan 11 10 7 7 8 nan 6 7 9 8 6 3 1 3 5 4 9 17 nan nan nan nan nan nan nan nan nan nan nan nan nan nan nan nan nan nan nan nan nan nan 55 52 54 57 56 52 48 48 44 42 43 40 35 nan nan nan nan nan nan nan nan 28 26 22 nan 19 20 21 23
29 26 24 23 21 21 nan 21 20 18 17 17 17 13 11 10 9 10 8 8 9 nan nan nan nan 9 10 6 2 2 1 3 5 12 nan nan nan nan nan nan nan nan nan nan nan nan nan nan nan nan nan nan nan nan nan nan 46 46 nan nan 59 nan nan nan nan 44 nan nan nan nan nan nan nan nan nan nan nan nan nan 23 18 16 16 21 26
28 24 23 20 18 nan nan 19 nan nan nan 17 16 15 12 11 10 10 10 9 8 nan nan nan nan nan 9 10 6 4 5 2 1 6 nan 21 nan 24 nan nan 21 nan nan nan nan nan nan nan nan nan nan nan nan nan nan nan nan nan nan nan nan nan nan nan nan nan nan nan nan nan nan nan nan nan nan nan nan 34 31 27 25 25 25 26 27
28 25 21 18 nan nan nan nan nan nan nan nan 17 15 13 12 nan nan nan 10 nan nan nan nan nan nan 10 11 10 7 5 6 4 1 3 11 21 26 24 nan 21 nan nan nan nan nan nan nan nan nan nan nan nan nan nan nan nan nan nan nan nan nan nan nan nan nan nan nan nan nan nan nan nan nan nan nan nan 39 36 31 28 29 28 27 30
27 25 21 nan nan nan nan nan nan nan nan nan nan nan 15 nan nan nan nan nan nan nan nan nan nan nan nan 10 11 9 7 4 5 4 1 2 9 19 25 26 23 22 nan nan nan nan nan nan nan nan nan nan nan nan nan nan nan nan nan nan nan nan nan nan nan nan nan nan nan nan nan nan nan nan nan nan nan nan 39 35 33 33 31 29 31
25 23 nan nan nan nan 20 19 19 nan nan nan nan nan nan nan nan nan nan nan nan nan nan nan nan nan nan nan 10 11 8 6 5 4 4 3 3 8 17 22 22 19 19 18 nan nan nan nan nan nan nan nan nan nan nan nan nan nan nan nan nan nan nan nan nan nan nan nan nan nan nan nan nan nan nan nan nan nan nan 36 34 32 33 32 33
23 nan nan nan 17 nan nan 17 18 nan nan nan nan nan nan nan nan nan nan nan nan nan nan nan nan nan nan nan 8 10 9 8 6 5 5 5 4 5 8 14 18 20 20 21 21 21 nan nan nan nan nan nan nan nan nan nan nan nan nan nan nan nan nan nan nan nan nan nan nan nan nan nan nan nan nan nan nan nan nan nan 34 nan nan nan nan
22 nan nan nan nan 17 nan nan nan nan nan nan nan nan nan nan nan nan nan nan nan nan nan nan nan nan nan nan 7 8 9 9 nan nan nan nan nan 5 8 10 13 16 20 20 21 22 22 nan nan nan nan nan nan nan nan nan nan nan nan nan nan nan nan nan nan nan nan nan nan nan nan nan nan nan nan nan nan nan nan nan nan nan nan nan nan
20 nan nan nan nan 17 nan nan nan nan nan nan nan nan 12 nan nan nan nan nan nan nan nan nan nan nan nan nan nan nan nan nan nan nan nan nan nan nan nan 7 9 12 16 17 16 19 21 22 23 nan nan nan nan 25 24 nan nan nan nan nan nan nan nan nan nan nan nan nan nan nan nan nan nan nan nan nan nan nan nan nan nan nan nan nan nan
18 nan nan nan nan nan nan nan nan nan nan nan nan nan nan nan nan nan nan nan nan nan nan nan nan nan nan nan nan nan nan nan nan nan nan nan nan nan nan nan nan nan 14 10 10 12 15 16 17 18 18 18 19 20 22 23 nan nan nan nan nan nan nan nan nan nan nan nan nan nan nan nan nan nan nan nan nan nan nan nan nan nan nan nan nan
21 18 nan nan 19 21 nan nan 19 nan nan nan nan nan nan nan nan nan nan nan nan nan nan nan nan nan nan nan nan nan nan nan nan nan nan nan nan nan nan nan nan nan nan nan nan 9 10 11 12 12 13 12 12 13 14 16 17 nan nan nan nan nan nan nan nan nan nan nan nan nan nan nan nan nan nan nan nan nan nan nan nan nan nan nan nan
22 20 nan 19 18 19 20 19 18 nan nan nan nan nan nan nan nan nan nan nan nan nan nan nan nan nan nan nan nan nan nan nan nan nan nan nan nan nan nan nan nan nan nan nan nan nan nan nan nan 11 nan nan nan nan nan nan nan nan nan nan nan nan nan nan nan nan nan nan nan nan nan nan nan nan nan nan nan nan nan nan nan nan nan nan nan
23 22 nan nan nan 18 18 17 nan nan nan nan 17 17 nan nan nan nan nan nan nan nan nan nan nan nan nan nan nan nan nan nan nan nan nan nan nan nan nan nan nan nan nan nan nan nan nan nan nan nan nan nan nan nan nan nan nan nan nan nan nan nan nan nan nan nan nan nan nan nan nan nan nan nan nan nan nan nan nan nan nan nan nan nan nan
21 19 16 19 23 20 nan nan nan nan 19 17 nan nan nan nan 16 nan nan nan nan nan nan nan nan nan nan nan nan nan nan nan nan nan nan nan nan nan nan nan nan nan nan nan nan nan nan nan nan nan nan nan nan nan nan nan nan nan nan nan nan nan nan nan nan nan 19 nan nan nan nan nan nan nan nan nan nan nan nan nan nan nan nan nan nan
22 21 21 21 23 22 19 nan nan nan 20 20 nan nan nan nan nan nan nan nan nan nan nan nan nan nan nan nan nan nan nan nan nan nan nan nan nan nan nan nan nan nan nan nan nan nan nan nan nan nan nan nan nan nan nan nan nan nan nan nan nan nan nan nan nan nan nan nan nan nan nan nan nan nan nan nan nan nan nan nan nan nan nan nan nan
24 24 25 25 nan nan 22 23 24 24 23 nan nan nan nan nan nan nan nan nan nan nan nan nan nan nan nan nan nan nan nan nan nan nan nan nan nan nan nan nan nan nan nan nan nan nan nan nan nan nan nan nan nan nan nan nan nan nan nan nan nan nan nan nan nan nan nan nan nan nan nan nan nan nan nan nan nan nan nan nan nan nan nan nan nan
28 27 nan nan nan nan nan nan nan 27 nan nan nan nan nan nan nan nan nan nan nan nan nan nan nan nan nan nan nan nan nan nan nan nan nan nan nan nan nan nan nan nan nan nan nan nan nan nan nan nan nan nan nan nan nan nan nan nan nan nan nan nan nan nan 32 32 32 nan nan nan nan nan nan nan nan nan nan nan nan nan nan nan nan nan nan
25 26 nan nan 29 29 30 29 28 nan nan nan nan nan nan nan nan nan nan nan nan nan nan nan nan nan nan nan nan nan nan nan nan nan nan nan nan nan nan nan nan nan nan nan nan nan nan nan nan nan nan nan nan nan nan nan nan nan nan nan nan nan nan nan nan nan 35 nan nan nan nan nan nan nan nan nan nan nan nan nan nan nan nan nan nan
nan nan 22 30 30 31 31 32 nan nan nan nan nan nan nan nan nan nan nan nan nan nan nan nan nan nan nan nan nan nan nan nan nan nan nan nan nan nan nan nan nan nan nan nan nan nan nan nan nan nan nan nan nan nan nan nan nan nan nan nan nan nan nan nan nan nan nan nan nan nan nan nan nan nan nan nan nan nan nan nan nan nan nan nan nan
22 22 27 29 32 32 nan nan nan nan nan nan nan nan nan nan nan nan nan nan nan nan nan nan nan nan nan nan nan nan nan nan nan nan nan nan nan nan nan nan nan nan nan nan nan nan nan nan nan nan nan nan nan nan nan nan nan nan nan nan nan nan nan nan nan nan nan nan nan nan nan nan nan nan nan nan nan nan nan nan nan nan nan nan nan
28 28 32 31 32 33 nan nan nan nan nan nan nan nan nan nan nan nan nan nan nan nan nan nan nan nan nan nan nan nan nan nan nan nan nan nan nan nan nan nan nan nan nan nan nan nan nan nan nan nan nan nan nan nan nan nan nan nan nan nan nan nan nan nan nan nan nan nan nan nan nan nan nan nan nan nan nan nan nan nan nan nan nan nan nan
32 32 32 32 nan nan nan nan nan nan nan nan nan nan nan nan nan nan nan nan nan nan nan nan nan nan nan nan nan nan nan nan nan nan nan nan nan nan nan nan nan nan nan nan nan nan nan nan nan nan nan nan nan nan nan nan nan nan nan nan nan nan nan nan nan nan nan nan nan nan nan nan nan nan nan nan nan nan nan 39 39 39 39 nan nan
30 nan nan nan nan nan nan nan nan nan nan nan nan nan nan nan nan nan nan nan nan nan nan nan nan nan nan nan nan nan nan nan nan nan nan nan nan nan nan nan nan nan nan nan nan nan nan nan nan nan nan nan nan nan nan nan nan nan nan nan nan nan nan nan nan nan nan nan nan nan nan nan nan nan nan nan nan nan nan nan nan 43 44 nan nan
nan nan nan nan nan nan nan nan nan nan nan nan nan nan nan nan nan nan nan nan nan nan nan nan nan nan nan nan nan nan nan nan nan nan nan nan nan nan nan nan nan nan nan nan nan nan nan nan nan nan nan nan nan nan nan nan nan nan nan nan nan nan nan nan nan nan nan nan nan nan nan nan nan nan nan nan nan nan nan nan 46 46 46 46 47
nan nan nan nan nan nan nan nan nan nan nan nan nan nan nan nan nan nan nan nan nan nan nan nan nan nan nan nan nan nan nan nan nan nan nan nan nan nan nan nan nan nan nan nan nan nan nan nan nan nan nan nan nan nan nan nan nan nan nan nan nan nan nan nan nan nan nan nan nan nan nan nan nan nan nan nan nan nan nan nan nan nan nan nan nan
nan nan nan nan nan nan nan nan nan nan nan nan nan nan nan nan nan nan nan nan nan nan nan nan nan nan nan nan nan nan nan nan nan nan nan nan nan nan nan nan nan nan nan nan nan nan nan nan nan nan nan nan nan nan nan nan nan nan nan nan nan nan nan nan nan nan nan nan nan nan nan nan nan nan nan nan nan nan nan nan nan nan nan nan nan
nan nan nan nan nan nan nan nan nan nan nan nan nan nan nan nan nan nan nan nan nan nan nan nan nan nan nan nan nan nan nan nan nan nan nan nan nan nan nan nan nan nan nan nan nan nan nan nan nan nan nan nan nan nan nan nan nan nan nan nan nan nan nan nan nan nan nan nan nan nan nan nan nan nan nan nan nan nan nan nan nan nan nan nan nan
nan nan nan nan nan nan nan nan nan nan nan nan nan nan nan nan nan nan nan nan nan nan nan nan nan nan nan nan nan nan nan nan nan nan nan nan nan nan nan nan nan nan nan nan nan nan nan nan nan nan nan nan nan nan nan nan nan nan nan nan nan nan nan nan nan nan nan nan nan nan nan nan nan nan nan nan nan nan nan nan nan nan nan nan nan
nan nan nan nan nan nan nan nan nan nan nan nan nan nan nan nan nan nan nan nan nan nan nan nan nan nan nan nan nan nan nan nan nan nan nan nan nan nan nan nan nan nan nan nan nan nan nan nan nan nan nan nan nan nan nan nan nan nan nan nan nan nan nan nan nan nan nan nan nan nan nan nan nan nan nan nan nan nan nan nan nan nan nan nan nan
nan nan nan nan nan nan nan nan nan nan nan nan nan nan nan nan nan nan nan nan nan nan nan nan nan nan nan nan nan nan nan nan nan nan nan nan nan nan nan nan nan nan nan nan nan nan nan nan nan nan nan nan nan nan nan nan nan nan nan nan nan nan nan nan nan nan nan nan nan nan nan nan nan nan nan nan nan nan nan nan nan nan nan nan nan
Wind_Direction
307 305 305 304 303 302 302 301 301 302 301 299 296 292 290 286 283 281 275 271 268 264 262 260 257 256 256 258 259 253 249 252 258 260 259 259 259 258 258 263 263 254 242 238 245 252 246 236 nan nan nan nan nan nan nan nan nan 218 222 230 231 235 237 230 227 223 231 242 243 245 245 249 244 245 240 239 237 239 243 244 244 245 246 249 250
308 307 306 305 304 304 304 nan nan 303 301 300 297 294 288 282 279 277 277 274 273 270 265 261 259 256 257 261 263 260 255 254 257 258 256 257 257 256 258 265 269 264 248 240 245 245 244 237 nan nan nan nan nan nan nan nan nan nan 225 233 236 241 241 237 225 230 225 236 236 239 242 248 244 245 246 242 237 237 238 240 243 246 248 252 254
313 310 308 nan nan nan nan nan nan nan nan nan nan 292 288 283 281 280 277 274 275 275 269 265 263 262 264 265 265 261 258 258 256 255 256 257 257 257 258 260 267 267 255 239 237 241 240 235 228 228 nan nan nan nan nan nan nan nan nan 234 239 241 241 238 233 229 231 231 237 237 242 241 243 240 241 241 241 241 238 238 241 243 247 251 253
315 312 nan nan nan nan nan nan nan nan nan nan nan 296 293 289 288 286 281 277 276 273 270 263 263 268 265 261 261 261 258 259 256 257 259 262 261 258 258 266 266 263 253 242 237 238 239 235 231 229 228 219 nan nan nan nan nan nan nan nan 237 240 237 236 233 231 230 230 228 235 239 239 231 232 236 238 241 240 243 240 241 243 244 248 251
318 315 nan nan nan nan nan nan nan nan nan nan nan 302 296 293 292 289 284 283 283 276 267 262 260 261 260 257 260 263 264 253 247 253 256 257 256 257 262 264 264 260 249 236 234 236 237 239 238 237 234 228 224 nan nan nan nan nan nan nan 235 237 235 234 238 236 230 226 224 231 240 236 233 232 238 240 240 242 242 244 245 246 246 247 249
321 nan nan nan nan nan nan nan nan 307 nan 307 309 308 302 297 292 290 287 287 291 287 268 260 262 258 257 250 255 258 262 261 259 257 257 255 252 252 255 258 258 256 245 231 229 233 235 240 241 241 241 240 235 233 235 237 237 235 233 234 235 235 234 233 235 235 231 224 230 227 241 239 231 232 242 252 248 240 236 237 242 246 246 243 248
nan nan nan nan 319 319 318 318 315 313 313 314 315 315 312 307 299 297 294 288 293 301 282 260 257 254 250 247 241 249 250 252 253 258 259 259 257 254 255 255 250 246 240 230 230 233 235 239 242 239 nan nan nan nan 243 242 241 241 241 240 238 235 234 232 232 232 232 229 229 235 234 240 243 231 250 260 257 258 246 237 238 244 245 247 243
nan nan nan 319 321 324 325 324 321 321 320 318 319 320 317 311 301 302 306 295 298 314 302 265 253 252 247 243 238 246 259 261 264 267 261 258 258 260 259 255 247 243 235 228 228 233 234 235 237 238 240 246 nan nan 252 247 244 245 242 239 235 233 233 nan 230 231 235 233 232 234 242 239 240 245 248 253 nan nan 255 257 254 252 249 248 251
nan nan nan nan 324 327 329 327 325 325 323 323 324 321 316 310 300 301 310 306 305 314 306 275 252 246 245 242 239 241 248 257 269 265 258 255 259 259 257 250 240 235 235 232 231 233 232 231 232 236 239 246 258 259 258 251 246 246 244 241 237 235 233 233 230 232 235 236 232 236 239 241 242 244 nan nan nan 258 255 264 262 259 255 249 247
nan nan nan 323 326 329 331 329 327 327 326 329 331 328 320 308 299 299 303 306 306 307 300 275 258 252 245 242 243 241 246 256 253 244 255 263 261 258 252 nan 240 236 237 237 234 232 229 229 231 240 245 250 257 266 267 265 259 252 248 244 242 237 nan nan nan nan 234 235 236 242 244 239 241 252 nan nan nan 249 251 261 265 262 261 253 241
nan nan nan nan 328 330 330 329 328 329 328 330 331 331 324 311 304 304 305 309 309 303 292 269 259 259 256 251 247 249 249 248 233 234 nan nan 237 246 245 245 247 236 240 248 242 235 229 228 230 236 241 nan 249 259 261 263 260 257 255 255 249 nan nan nan nan 237 236 237 239 242 243 237 241 251 nan nan 248 254 259 267 271 265 265 256 243
nan nan nan nan 327 328 331 330 329 330 328 327 328 331 326 313 316 323 320 321 319 308 287 277 273 273 269 257 250 249 246 nan nan nan nan nan nan 233 240 244 246 nan 237 247 250 242 235 231 nan nan nan 244 243 247 254 258 257 255 257 nan nan nan nan nan 245 240 240 240 241 242 242 242 242 251 nan 247 243 250 261 270 274 271 260 249 241
nan nan nan 323 325 327 329 331 332 332 331 328 328 331 327 316 317 333 340 334 326 316 296 278 277 279 275 259 249 248 250 nan nan nan nan nan nan 213 230 233 238 nan 242 243 254 250 243 nan nan nan nan nan nan 238 nan 244 248 253 254 255 253 254 254 251 248 246 245 243 241 239 243 245 247 247 251 248 248 255 263 271 270 264 254 242 237
nan nan 319 321 324 324 326 329 332 334 332 329 329 333 333 325 312 321 334 332 321 315 300 277 277 278 274 265 255 253 254 nan nan nan nan nan nan 212 230 236 240 nan nan 241 248 257 nan nan nan nan nan nan nan nan nan nan 240 nan nan nan nan nan nan 242 240 243 244 243 244 242 241 247 248 246 246 247 252 259 269 275 270 260 249 240 241
nan nan 314 318 nan nan nan nan nan 332 332 332 331 335 339 338 320 309 317 322 321 326 316 279 279 284 281 268 259 252 255 nan nan nan nan nan nan 214 224 239 251 nan nan nan 246 252 nan nan nan nan nan nan nan nan nan nan nan nan nan nan nan nan 239 236 236 238 237 235 239 241 241 nan 246 245 nan 247 252 259 267 270 273 263 246 238 240
nan nan 309 nan nan nan nan nan nan 329 333 333 333 334 335 337 332 322 322 323 328 334 324 293 283 284 285 269 257 250 nan nan nan nan nan nan 198 221 223 236 254 nan nan nan nan nan nan nan nan nan nan nan nan nan nan nan nan nan nan nan nan nan 238 236 239 238 235 235 236 237 nan nan 247 nan 246 245 249 252 252 247 254 259 255 246 241
nan nan 313 nan nan nan nan nan 320 325 330 333 335 333 331 332 329 328 334 339 337 337 330 309 288 287 284 272 256 246 236 nan nan nan nan nan 207 215 220 233 250 nan nan nan nan nan nan nan nan nan nan nan nan nan nan nan nan nan nan nan 244 244 240 235 235 235 234 236 238 238 239 242 243 nan 241 238 245 251 250 251 251 257 252 243 235
nan nan nan nan nan nan nan nan 316 319 324 333 337 335 332 333 336 334 339 355 356 342 330 316 294 285 284 278 260 242 231 nan nan nan nan nan nan 201 207 219 227 224 nan nan nan nan nan nan nan nan nan nan nan nan nan nan nan nan nan 239 242 240 237 233 226 223 224 228 232 235 235 238 243 246 245 246 251 251 254 250 246 254 246 239 243
nan 313 315 nan nan nan nan nan nan 313 319 331 337 336 331 331 337 nan nan nan 357 346 326 320 306 284 290 309 238 238 235 224 nan nan nan nan nan nan 210 217 203 202 212 206 nan nan nan nan 239 234 229 226 229 228 nan 224 nan 227 231 231 230 230 226 224 223 223 222 225 229 231 229 234 238 241 243 248 253 254 251 246 241 241 241 245 252
314 309 nan nan nan 311 nan 308 308 310 316 324 334 337 333 325 nan nan nan 314 330 335 327 326 326 320 268 240 28 91 228 226 nan nan nan nan nan nan nan 223 205 200 192 nan 174 193 nan nan nan nan nan 217 218 219 216 216 219 221 224 223 224 222 215 215 216 218 220 224 228 232 231 234 237 238 240 243 nan nan 253 253 250 251 248 248 256
315 311 307 303 nan nan nan nan 306 308 313 320 330 334 330 nan nan nan 281 277 289 292 329 346 343 343 306 247 65 79 116 214 227 nan nan nan nan nan nan nan nan nan nan nan nan nan nan nan nan nan nan nan nan nan nan 222 226 228 225 221 218 218 217 217 210 216 221 225 229 233 234 236 237 nan nan nan nan nan nan nan 248 252 252 249 248
316 311 306 nan 297 303 306 304 304 307 308 311 316 323 326 nan 320 302 280 272 278 nan 294 341 350 345 339 300 285 70 92 176 202 229 nan nan nan nan nan nan nan nan nan nan nan nan nan nan nan nan nan nan nan nan nan nan 223 226 222 218 215 219 223 220 213 214 224 229 235 nan nan nan nan nan nan nan nan 239 239 238 nan 249 251 244 240
314 309 304 297 295 298 nan 303 301 301 305 308 310 316 318 314 317 304 287 270 273 nan nan nan nan 325 340 339 315 261 77 84 187 205 nan nan nan nan nan nan nan nan nan nan nan nan nan nan nan nan nan nan nan nan nan nan 220 219 nan nan 215 nan nan nan nan 224 nan nan nan nan nan nan nan nan nan nan nan nan nan 231 241 253 248 240 235
309 306 302 300 297 nan nan 297 nan nan nan 306 307 309 308 308 311 310 299 291 288 nan nan nan nan nan 322 338 339 298 274 283 164 189 nan 209 nan 216 nan nan 227 nan nan nan nan nan nan nan nan nan nan nan nan nan nan nan nan nan nan nan nan nan nan nan nan nan nan nan nan nan nan nan nan nan nan nan nan 227 228 236 244 248 248 245 234
309 305 302 301 nan nan nan nan nan nan nan nan 306 305 304 300 nan nan nan 297 nan nan nan nan nan nan 311 325 337 332 293 270 258 219 189 211 215 213 215 nan 236 nan nan nan nan nan nan nan nan nan nan nan nan nan nan nan nan nan nan nan nan nan nan nan nan nan nan nan nan nan nan nan nan nan nan nan nan 230 233 237 242 246 250 244 237
304 303 305 nan nan nan nan nan nan nan nan nan nan nan 311 nan nan nan nan nan nan nan nan nan nan nan nan 320 325 327 329 298 269 263 278 221 224 220 217 227 237 241 nan nan nan nan nan nan nan nan nan nan nan nan nan nan nan nan nan nan nan nan nan nan nan nan nan nan nan nan nan nan nan nan nan nan nan nan 238 241 241 240 245 242 235
300 300 nan nan nan nan 292 298 300 nan nan nan nan nan nan nan nan nan nan nan nan nan nan nan nan nan nan nan 318 318 319 323 309 291 264 226 235 228 215 223 230 238 239 243 nan nan nan nan nan nan nan nan nan nan nan nan nan nan nan nan nan nan nan nan nan nan nan nan nan nan nan nan nan nan nan nan nan nan nan 244 242 239 244 242 236
298 nan nan nan 289 nan nan 302 304 nan nan nan nan nan nan nan nan nan nan nan nan nan nan nan nan nan nan nan 314 312 320 319 320 324 290 259 237 231 225 223 221 221 226 226 226 231 nan nan nan nan nan nan nan nan nan nan nan nan nan nan nan nan nan nan nan nan nan nan nan nan nan nan nan nan nan nan nan nan nan nan 237 nan nan nan nan
298 nan nan nan nan 289 nan nan nan nan nan nan nan nan nan nan nan nan nan nan nan nan nan nan nan nan nan nan 312 313 304 314 nan nan nan nan nan 237 220 221 214 213 216 221 217 216 222 nan nan nan nan nan nan nan nan nan nan nan nan nan nan nan nan nan nan nan nan nan nan nan nan nan nan nan nan nan nan nan nan nan nan nan nan nan nan
296 nan nan nan nan 295 nan nan nan nan nan nan nan nan 301 nan nan nan nan nan nan nan nan nan nan nan nan nan nan nan nan nan nan nan nan nan nan nan nan 244 233 222 213 208 215 215 213 212 209 nan nan nan nan 194 196 nan nan nan nan nan nan nan nan nan nan nan nan nan nan nan nan nan nan nan nan nan nan nan nan nan nan nan nan nan nan
288 nan nan nan nan nan nan nan nan nan nan nan nan nan nan nan nan nan nan nan nan nan nan nan nan nan nan nan nan nan nan nan nan nan nan nan nan nan nan nan nan nan 226 232 222 222 216 212 205 209 203 200 196 193 197 201 nan nan nan nan nan nan nan nan nan nan nan nan nan nan nan nan nan nan nan nan nan nan nan nan nan nan nan nan nan
295 295 nan nan 292 296 nan nan 293 nan nan nan nan nan nan nan nan nan nan nan nan nan nan nan nan nan nan nan nan nan nan nan nan nan nan nan nan nan nan nan nan nan nan nan nan 215 224 221 215 212 213 207 199 198 200 204 204 nan nan nan nan nan nan nan nan nan nan nan nan nan nan nan nan nan nan nan nan nan nan nan nan nan nan nan nan
298 300 nan 297 297 299 297 294 288 nan nan nan nan nan nan nan nan nan nan nan nan nan nan nan nan nan nan nan nan nan nan nan nan nan nan nan nan nan nan nan nan nan nan nan nan nan nan nan nan 224 nan nan nan nan nan nan nan nan nan nan nan nan nan nan nan nan nan nan nan nan nan nan nan nan nan nan nan nan nan nan nan nan nan nan nan
299 301 nan nan nan 299 296 292 nan nan nan nan 284 274 nan nan nan nan nan nan nan nan nan nan nan nan nan nan nan nan nan nan nan nan nan nan nan nan nan nan nan nan nan nan nan nan nan nan nan nan nan nan nan nan nan nan nan nan nan nan nan nan nan nan nan nan nan nan nan nan nan nan nan nan nan nan nan nan nan nan nan nan nan nan nan
295 296 297 294 297 299 nan nan nan nan 283 284 nan nan nan nan 273 nan nan nan nan nan nan nan nan nan nan nan nan nan nan nan nan nan nan nan nan nan nan nan nan nan nan nan nan nan nan nan nan nan nan nan nan nan nan nan nan nan nan nan nan nan nan nan nan nan 241 nan nan nan nan nan nan nan nan nan nan nan nan nan nan nan nan nan nan
294 291 287 286 286 289 289 nan nan nan 282 277 nan nan nan nan nan nan nan nan nan nan nan nan nan nan nan nan nan nan nan nan nan nan nan nan nan nan nan nan nan nan nan nan nan nan nan nan nan nan nan nan nan nan nan nan nan nan nan nan nan nan nan nan nan nan nan nan nan nan nan nan nan nan nan nan nan nan nan nan nan nan nan nan nan
295 292 290 288 nan nan 285 280 279 276 273 nan nan nan nan nan nan nan nan nan nan nan nan nan nan nan nan nan nan nan nan nan nan nan nan nan nan nan nan nan nan nan nan nan nan nan nan nan nan nan nan nan nan nan nan nan nan nan nan nan nan nan nan nan nan nan nan nan nan nan nan nan nan nan nan nan nan nan nan nan nan nan nan nan nan
298 294 nan nan nan nan nan nan nan 276 nan nan nan nan nan nan nan nan nan nan nan nan nan nan nan nan nan nan nan nan nan nan nan nan nan nan nan nan nan nan nan nan nan nan nan nan nan nan nan nan nan nan nan nan nan nan nan nan nan nan nan nan nan nan 247 247 247 nan nan nan nan nan nan nan nan nan nan nan nan nan nan nan nan nan nan
281 283 nan nan 283 281 279 279 276 nan nan nan nan nan nan nan nan nan nan nan nan nan nan nan nan nan nan nan nan nan nan nan nan nan nan nan nan nan nan nan nan nan nan nan nan nan nan nan nan nan nan nan nan nan nan nan nan nan nan nan nan nan nan nan nan nan 248 nan nan nan nan nan nan nan nan nan nan nan nan nan nan nan nan nan nan
nan nan 274 276 277 274 273 271 nan nan nan nan nan nan nan nan nan nan nan nan nan nan nan nan nan nan nan nan nan nan nan nan nan nan nan nan nan nan nan nan nan nan nan nan nan nan nan nan nan nan nan nan nan nan nan nan nan nan nan nan nan nan nan nan nan nan nan nan nan nan nan nan nan nan nan nan nan nan nan nan nan nan nan nan nan
272 275 276 273 273 272 nan nan nan nan nan nan nan nan nan nan nan nan nan nan nan nan nan nan nan nan nan nan nan nan nan nan nan nan nan nan nan nan nan nan nan nan nan nan nan nan nan nan nan nan nan nan nan nan nan nan nan nan nan nan nan nan nan nan nan nan nan nan nan nan nan nan nan nan nan nan nan nan nan nan nan nan nan nan nan
282 278 270 270 270 270 nan nan nan nan nan nan nan nan nan nan nan nan nan nan nan nan nan nan nan nan nan nan nan nan nan nan nan nan nan nan nan nan nan nan nan nan nan nan nan nan nan nan nan nan nan nan nan nan nan nan nan nan nan nan nan nan nan nan nan nan nan nan nan nan nan nan nan nan nan nan nan nan nan nan nan nan nan nan nan
273 271 271 269 nan nan nan nan nan nan nan nan nan nan nan nan nan nan nan nan nan nan nan nan nan nan nan nan nan nan nan nan nan nan nan nan nan nan nan nan nan nan nan nan nan nan nan nan nan nan nan nan nan nan nan nan nan nan nan nan nan nan nan nan nan nan nan nan nan nan nan nan nan nan nan nan nan nan nan 253 253 254 255 nan nan
273 nan nan nan nan nan nan nan nan nan nan nan nan nan nan nan nan nan nan nan nan nan nan nan nan nan nan nan nan nan nan nan nan nan nan nan nan nan nan nan nan nan nan nan nan nan nan nan nan nan nan nan nan nan nan nan nan nan nan nan nan nan nan nan nan nan nan nan nan nan nan nan nan nan nan nan nan nan nan nan nan 254 254 nan nan
nan nan nan nan nan nan nan nan nan nan nan nan nan nan nan nan nan nan nan nan nan nan nan nan nan nan nan nan nan nan nan nan nan nan nan nan nan nan nan nan nan nan nan nan nan nan nan nan nan nan nan nan nan nan nan nan nan nan nan nan nan nan nan nan nan nan nan nan nan nan nan nan nan nan nan nan nan nan nan nan 256 256 254 254 254
nan nan nan nan nan nan nan nan nan nan nan nan nan nan nan nan nan nan nan nan nan nan nan nan nan nan nan nan nan nan nan nan nan nan nan nan nan nan nan nan nan nan nan nan nan nan nan nan nan nan nan nan nan nan nan nan nan nan nan nan nan nan nan nan nan nan nan nan nan nan nan nan nan nan nan nan nan nan nan nan nan nan nan nan nan
nan nan nan nan nan nan nan nan nan nan nan nan nan nan nan nan nan nan nan nan nan nan nan nan nan nan nan nan nan nan nan nan nan nan nan nan nan nan nan nan nan nan nan nan nan nan nan nan nan nan nan nan nan nan nan nan nan nan nan nan nan nan nan nan nan nan nan nan nan nan nan nan nan nan nan nan nan nan nan nan nan nan nan nan nan
nan nan nan nan nan nan nan nan nan nan nan nan nan nan nan nan nan nan nan nan nan nan nan nan nan nan nan nan nan nan nan nan nan nan nan nan nan nan nan nan nan nan nan nan nan nan nan nan nan nan nan nan nan nan nan nan nan nan nan nan nan nan nan nan nan nan nan nan nan nan nan nan nan nan nan nan nan nan nan nan nan nan nan nan nan
nan nan nan nan nan nan nan nan nan nan nan nan nan nan nan nan nan nan nan nan nan nan nan nan nan nan nan nan nan nan nan nan nan nan nan nan nan nan nan nan nan nan nan nan nan nan nan nan nan nan nan nan nan nan nan nan nan nan nan nan nan nan nan nan nan nan nan nan nan nan nan nan nan nan nan nan nan nan nan nan nan nan nan nan nan
nan nan nan nan nan nan nan nan nan nan nan nan nan nan nan nan nan nan nan nan nan nan nan nan nan nan nan nan nan nan nan nan nan nan nan nan nan nan nan nan nan nan nan nan nan nan nan nan nan nan nan nan nan nan nan nan nan nan nan nan nan nan nan nan nan nan nan nan nan nan nan nan nan nan nan nan nan nan nan nan nan nan nan nan nan
nan nan nan nan nan nan nan nan nan nan nan nan nan nan nan nan nan nan nan nan nan nan nan nan nan nan nan nan nan nan nan nan nan nan nan nan nan nan nan nan nan nan nan nan nan nan nan nan nan nan nan nan nan nan nan nan nan nan nan nan nan nan nan nan nan nan nan nan nan nan nan nan nan nan nan nan nan nan nan nan nan nan nan nan nan